This is the latest recevied weather packets stored in our database for station/object DG1ROH. If no packets are shown the sender has not sent any weather packets the latest 10 day(s).
| Time | Temp. | Humidity | Pressure | Rain* | Wind** | Luminosity | Snow |
|---|---|---|---|---|---|---|---|
| 1778322364 | 15° C | 61% | 1020.6 hPa | 0 mm | - | 279 W/m² | - |
| 1778322248 | 15° C | 62% | 1020.5 hPa | 0 mm | - | 341 W/m² | - |
| 1778322124 | 14.44° C | 63% | 1020.7 hPa | 0 mm | - | 311 W/m² | - |
| 1778322004 | 14.44° C | 61% | 1020.7 hPa | 0 mm | - | 241 W/m² | - |
| 1778321885 | 15° C | 62% | 1020.8 hPa | 0 mm | - | 244 W/m² | - |
| 1778321764 | 15° C | 63% | 1020.8 hPa | 0 mm | - | 272 W/m² | - |
| 1778321645 | 15° C | 62% | 1020.8 hPa | 0 mm | - | 276 W/m² | - |
| 1778321522 | 15° C | 64% | 1020.8 hPa | 0 mm | - | 227 W/m² | - |
| 1778321403 | 15° C | 62% | 1020.8 hPa | 0 mm | - | 223 W/m² | - |
| 1778321283 | 15° C | 62% | 1020.8 hPa | 0 mm | - | 223 W/m² | - |
| 1778321163 | 15.56° C | 61% | 1020.7 hPa | 0 mm | - | 207 W/m² | - |
| 1778321049 | 16.67° C | 61% | 1020.7 hPa | 0 mm | - | 229 W/m² | - |
| 1778320923 | 16.67° C | 59% | 1020.9 hPa | 0 mm | - | 851 W/m² | - |
| 1778320803 | 16.67° C | 63% | 1020.8 hPa | 0 mm | - | 912 W/m² | - |
| 1778320683 | 15.56° C | 64% | 1020.8 hPa | 0 mm | - | 914 W/m² | - |
| 1778320562 | 15° C | 61% | 1020.8 hPa | 0 mm | - | 907 W/m² | - |
| 1778320443 | 15° C | 63% | 1020.8 hPa | 0 mm | - | 889 W/m² | - |
| 1778320321 | 15° C | 64% | 1020.8 hPa | 0 mm | - | 186 W/m² | - |
| 1778320201 | 15° C | 62% | 1020.8 hPa | 0 mm | - | 186 W/m² | - |
| 1778320082 | 15.56° C | 63% | 1020.7 hPa | 0 mm | - | 278 W/m² | - |
| 1778319961 | 15.56° C | 65% | 1020.7 hPa | 0 mm | - | 288 W/m² | - |
| 1778319843 | 15° C | 64% | 1020.7 hPa | 0 mm | - | 777 W/m² | - |
| 1778319721 | 15° C | 64% | 1020.7 hPa | 0 mm | - | 749 W/m² | - |
| 1778319600 | 15° C | 62% | 1020.7 hPa | 0 mm | - | 765 W/m² | - |
| 1778319478 | 15° C | 63% | 1020.7 hPa | 0 mm | - | 759 W/m² | - |
* Rain latest hour (hover to see other rain measurements)
** Current wind speed in m/s (hover to see current wind gust speed)